Howell, MI

3:18 PM EST on January 20, 2018 (GMT -0500)
Livingston County

Weather History for KOZW - April, 2013

Change the Weather History Date:

Saturday, April 6, 2013

  Actual Average Record
Temperature  
Mean Temperature 41 °F -  
Max Temperature 52 °F 52 °F 80 °F (2005)
Min Temperature 30 °F 33 °F 21 °F (2003)
Degree Days  
Heating Degree Days 24    
Moisture  
Dew Point 23 °F    
Average Humidity 51    
Maximum Humidity 80    
Minimum Humidity 30    
Precipitation  
Precipitation 0.00 in - - ()
Sea Level Pressure  
Sea Level Pressure 30.06 in    
Wind  
Wind Speed 11 mph (SE)    
Max Wind Speed 21 mph    
Max Gust Speed 26 mph    
Visibility 10 miles    
Events      
Averages and records for this station are not official NWS values.
T = Trace of Precipitation, MM = Missing Value Source: NWS Daily Summary

Daily Weather History Graph

Daily Weather History Graph

Search for Another Location

Airport or City:

Trip Planner

Search our weather history database for the weather conditions in past years. The results will help you decide how hot, cold, wet, or windy it might be!

Date:

Astronomy

Apr. 06, 2013 Rise Set
Actual Time 7:09 AM EDT 8:07 PM EDT
Civil Twilight 6:40 AM EDT 8:36 PM EDT
Nautical Twilight 6:06 AM EDT 9:11 PM EDT
Astronomical Twilight 5:30 AM EDT 9:47 PM EDT
Moon 4:57 AM EDT (4/6) 4:31 PM EDT (4/6)
Length of Visible Light 13h 56m
Length of Day
12h 58m
Waning Crescent, 15% of the Moon is Illuminated
Apr 6
Waning Crescent
Apr 10
New
Apr 18
First Quarter
Apr 25
Full
May 2
Last Quarter

Hourly Weather History & Observations

Time (EDT) Temp. Windchill Dew Point Humidity Pressure Visibility Wind Dir Wind Speed Gust Speed Precip Events Conditions
12:15 AM 32.0 °F 26.4 °F 23.5 °F 71% 30.18 in 10.0 mi SE 5.8 mph - N/A   Clear
12:35 AM 32.0 °F 26.4 °F 24.1 °F 73% 30.18 in 10.0 mi SE 5.8 mph - N/A   Clear
12:55 AM 31.3 °F 25.6 °F 23.7 °F 74% 30.18 in 10.0 mi SE 5.8 mph - N/A   Clear
1:15 AM 31.1 °F 27.7 °F 23.7 °F 74% 30.19 in 10.0 mi ESE 3.5 mph - N/A   Scattered Clouds
1:34 AM 30.9 °F 25.2 °F 23.4 °F 74% 30.18 in 10.0 mi ESE 5.8 mph - N/A   Clear
1:55 AM 30.7 °F 24.9 °F 24.3 °F 77% 30.20 in 10.0 mi SE 5.8 mph - N/A   Clear
2:15 AM 30.2 °F 24.3 °F 23.9 °F 77% 30.20 in 10.0 mi SE 5.8 mph - N/A   Clear
2:34 AM 30.0 °F 24.1 °F 23.9 °F 78% 30.20 in 10.0 mi SE 5.8 mph - N/A   Clear
2:55 AM 30.4 °F 24.5 °F 24.6 °F 79% 30.20 in 10.0 mi SE 5.8 mph - N/A   Scattered Clouds
3:15 AM 30.4 °F 25.6 °F 25.0 °F 80% 30.20 in 10.0 mi SE 4.6 mph - N/A   Overcast
3:34 AM 31.6 °F 25.1 °F 25.7 °F 79% 30.20 in 10.0 mi SE 6.9 mph - N/A   Overcast
3:55 AM 32.0 °F 24.2 °F 25.2 °F 76% 30.20 in 10.0 mi SE 9.2 mph - N/A   Overcast
4:15 AM 31.8 °F 26.2 °F 24.8 °F 75% 30.20 in 10.0 mi SE 5.8 mph - N/A   Overcast
4:35 AM 31.1 °F 24.5 °F 24.1 °F 75% 30.19 in 10.0 mi SE 6.9 mph - N/A   Overcast
4:55 AM 30.2 °F 23.4 °F 23.0 °F 75% 30.19 in 10.0 mi SE 6.9 mph - N/A   Scattered Clouds
5:15 AM 31.8 °F 25.4 °F 23.7 °F 72% 30.20 in 10.0 mi ESE 6.9 mph - N/A   Mostly Cloudy
5:35 AM 32.0 °F 26.4 °F 23.0 °F 69% 30.20 in 10.0 mi SE 5.8 mph - N/A   Overcast
5:55 AM 32.0 °F 24.2 °F 22.1 °F 67% 30.20 in 10.0 mi ESE 9.2 mph - N/A   Overcast
6:15 AM 32.0 °F 23.6 °F 21.0 °F 64% 30.19 in 10.0 mi ESE 10.4 mph - N/A   Overcast
6:35 AM 32.0 °F 23.6 °F 20.8 °F 63% 30.20 in 10.0 mi SE 10.4 mph - N/A   Overcast
6:55 AM 32.0 °F 24.2 °F 20.3 °F 62% 30.20 in 10.0 mi SE 9.2 mph - N/A   Overcast
7:14 AM 32.2 °F 23.8 °F 20.3 °F 62% 30.20 in 10.0 mi SE 10.4 mph - N/A   Overcast
7:35 AM 32.4 °F 24.0 °F 19.9 °F 60% 30.21 in 10.0 mi SE 10.4 mph - N/A   Overcast
7:55 AM 32.9 °F 23.7 °F 19.2 °F 57% 30.21 in 10.0 mi SE 12.7 mph - N/A   Overcast
8:14 AM 32.9 °F 24.1 °F 18.5 °F 55% 30.20 in 10.0 mi SE 11.5 mph - N/A   Overcast
8:35 AM 34.0 °F 24.6 °F 18.0 °F 52% 30.21 in 10.0 mi SE 13.8 mph - N/A   Overcast
8:54 AM 34.0 °F 24.6 °F 17.6 °F 51% 30.21 in 10.0 mi SE 13.8 mph 24.2 mph N/A   Overcast
9:15 AM 34.5 °F 25.7 °F 18.9 °F 53% 30.20 in 10.0 mi SE 12.7 mph - N/A   Overcast
9:35 AM 34.3 °F 24.2 °F 20.8 °F 58% 30.19 in 10.0 mi SE 16.1 mph - N/A   Overcast
9:54 AM 34.7 °F 24.7 °F 21.9 °F 60% 30.19 in 10.0 mi SE 16.1 mph 19.6 mph N/A   Overcast
10:15 AM 35.8 °F 26.1 °F 22.8 °F 59% 30.18 in 10.0 mi SE 16.1 mph - N/A   Overcast
10:35 AM 36.5 °F 27.4 °F 22.6 °F 57% 30.17 in 10.0 mi SSE 15.0 mph - N/A   Overcast
10:54 AM 37.2 °F 27.9 °F 23.0 °F 56% 30.18 in 10.0 mi SE 16.1 mph - N/A   Overcast
11:15 AM 38.8 °F 30.0 °F 23.2 °F 53% 30.17 in 10.0 mi SSE 16.1 mph 21.9 mph N/A   Overcast
11:35 AM 39.9 °F 31.4 °F 22.6 °F 50% 30.16 in 10.0 mi SE 16.1 mph 23.0 mph N/A   Overcast
11:55 AM 41.0 °F 32.8 °F 22.8 °F 48% 30.16 in 10.0 mi South 16.1 mph 23.0 mph N/A   Overcast
12:15 PM 41.4 °F 33.3 °F 22.5 °F 47% 30.15 in 10.0 mi SSE 16.1 mph - N/A   Overcast
12:35 PM 43.0 °F 35.7 °F 22.8 °F 45% 30.14 in 10.0 mi SE 15.0 mph 23.0 mph N/A   Mostly Cloudy
12:55 PM 43.5 °F 35.5 °F 20.5 °F 40% 30.13 in 10.0 mi SSE 18.4 mph 25.3 mph N/A   Scattered Clouds
1:14 PM 44.4 °F 37.2 °F 19.6 °F 37% 30.11 in 10.0 mi SE 16.1 mph 21.9 mph N/A   Scattered Clouds
1:35 PM 44.8 °F 36.9 °F 19.2 °F 36% 30.10 in 10.0 mi SE 19.6 mph 24.2 mph N/A   Mostly Cloudy
1:55 PM 45.7 °F 38.0 °F 19.2 °F 35% 30.08 in 10.0 mi SE 19.6 mph 25.3 mph N/A   Mostly Cloudy
2:14 PM 46.6 °F - 19.6 °F 34% 30.07 in 10.0 mi SE 17.3 mph 23.0 mph N/A   Scattered Clouds
2:35 PM 47.5 °F - 19.9 °F 34% 30.05 in 10.0 mi SSE 17.3 mph - N/A   Scattered Clouds
2:55 PM 49.8 °F - 20.5 °F 32% 30.04 in 10.0 mi SSE 19.6 mph 25.3 mph N/A   Mostly Cloudy
3:15 PM 50.2 °F - 20.8 °F 32% 30.02 in 10.0 mi SSE 16.1 mph 25.3 mph N/A   Mostly Cloudy
3:35 PM 51.4 °F - 21.4 °F 31% 30.00 in 10.0 mi SSE 17.3 mph 26.5 mph N/A   Scattered Clouds
3:55 PM 52.0 °F - 21.6 °F 30% 29.99 in 10.0 mi SSE 19.6 mph 24.2 mph N/A   Clear
4:15 PM 52.9 °F - 22.6 °F 31% 29.97 in 10.0 mi SSE 16.1 mph 21.9 mph N/A   Scattered Clouds
4:35 PM 51.8 °F - 21.9 °F 31% 29.95 in 10.0 mi SSE 20.7 mph 25.3 mph N/A   Mostly Cloudy
4:54 PM 51.8 °F - 21.7 °F 31% 29.93 in 10.0 mi SSE 19.6 mph 26.5 mph N/A   Overcast
5:15 PM 51.3 °F - 22.1 °F 32% 29.92 in 10.0 mi SE 18.4 mph 24.2 mph N/A   Overcast
5:35 PM 52.3 °F - 22.8 °F 32% 29.91 in 10.0 mi SSE 16.1 mph 23.0 mph N/A   Mostly Cloudy
5:54 PM 52.7 °F - 23.2 °F 32% 29.90 in 10.0 mi SE 15.0 mph 25.3 mph N/A   Mostly Cloudy
6:15 PM 51.8 °F - 23.0 °F 33% 29.88 in 10.0 mi SE 16.1 mph 26.5 mph N/A   Scattered Clouds
6:35 PM 51.1 °F - 23.5 °F 34% 29.88 in 10.0 mi SE 18.4 mph 25.3 mph N/A   Scattered Clouds
6:54 PM 50.0 °F - 23.5 °F 36% 29.87 in 10.0 mi SE 15.0 mph 18.4 mph N/A   Scattered Clouds
7:15 PM 49.8 °F - 23.7 °F 36% 29.86 in 10.0 mi SE 15.0 mph - N/A   Mostly Cloudy
7:35 PM 48.9 °F - 23.9 °F 38% 29.87 in 10.0 mi SSE 13.8 mph 19.6 mph N/A   Scattered Clouds
7:54 PM 48.4 °F - 24.6 °F 39% 29.86 in 10.0 mi SSE 13.8 mph 19.6 mph N/A   Scattered Clouds
8:15 PM 47.8 °F - 25.3 °F 41% 29.85 in 10.0 mi SSE 13.8 mph 17.3 mph N/A   Scattered Clouds
8:35 PM 47.7 °F - 25.7 °F 42% 29.85 in 10.0 mi SSE 10.4 mph 19.6 mph N/A   Scattered Clouds
8:55 PM 48.2 °F - 25.5 °F 41% 29.84 in 10.0 mi SSE 13.8 mph 19.6 mph N/A   Mostly Cloudy
9:15 PM 47.8 °F - 25.5 °F 42% 29.83 in 10.0 mi SSE 13.8 mph 19.6 mph N/A   Scattered Clouds
9:34 PM 47.7 °F - 25.7 °F 42% 29.82 in 10.0 mi SE 15.0 mph - N/A   Scattered Clouds
9:55 PM 48.0 °F - 25.3 °F 41% 29.81 in 10.0 mi SSE 16.1 mph 20.7 mph N/A   Scattered Clouds
10:14 PM 48.2 °F - 25.3 °F 41% 29.80 in 10.0 mi SSE 13.8 mph 24.2 mph N/A   Mostly Cloudy
10:35 PM 48.4 °F - 25.0 °F 40% 29.79 in 10.0 mi SSE 17.3 mph - N/A   Overcast
10:55 PM 48.6 °F - 24.8 °F 39% 29.77 in 10.0 mi SSE 16.1 mph 23.0 mph N/A   Overcast
11:14 PM 49.1 °F - 24.8 °F 39% 29.77 in 10.0 mi SSE 16.1 mph 23.0 mph N/A   Mostly Cloudy
11:35 PM 49.1 °F - 24.8 °F 39% 29.75 in 10.0 mi SSE 12.7 mph 20.7 mph N/A   Mostly Cloudy
11:55 PM 49.5 °F - 24.4 °F 38% 29.74 in 10.0 mi SSE 15.0 mph - N/A   Overcast